Vagabond Aaf / Yakim, WA

12:27 PM PDT on July 24, 2017 (GMT -0700)
Vagabond Aaf / Yakim

Weather History for K1YT - May, 2014

Change the Weather History Date:

Friday, May 9, 2014

  Actual Average (KYKM) Record (KYKM)
Temperature  
Mean Temperature 52 °F -  
Max Temperature 62 °F 71 °F 95 °F (1949)
Min Temperature 42 °F 41 °F 27 °F (1999)
Degree Days  
Heating Degree Days 13    
Growing Degree Days 2 (Base 50)    
Moisture  
Dew Point 36 °F    
Average Humidity 57    
Maximum Humidity 89    
Minimum Humidity 31    
Precipitation  
Precipitation 0.02 in - - ()
Sea Level Pressure  
Sea Level Pressure 29.81 in    
Wind  
Wind Speed 8 mph (West)    
Max Wind Speed 20 mph    
Max Gust Speed 31 mph    
Visibility 12 miles    
Events Rain    
Averages and records for this station are not official NWS values.
T = Trace of Precipitation, MM = Missing Value Source: NWS Daily Summary

Daily Weather History Graph

Daily Weather History Graph

Search for Another Location

Airport or City:

Trip Planner

Search our weather history database for the weather conditions in past years. The results will help you decide how hot, cold, wet, or windy it might be!

Date:

Astronomy

May. 09, 2014 Rise Set
Actual Time 5:35 AM PDT 8:22 PM PDT
Civil Twilight 5:00 AM PDT 8:57 PM PDT
Nautical Twilight 4:16 AM PDT 9:41 PM PDT
Astronomical Twilight 3:24 AM PDT 10:34 PM PDT
Moon 3:06 PM PDT (5/9) 2:59 AM PDT (5/9)
Length of Visible Light 15h 56m
Length of Day
14h 47m
Waxing Gibbous, 74% of the Moon is Illuminated
May 9
Waxing Gibbous
May 14
Full
May 21
Last Quarter
May 28
New
Jun 5
First Quarter

Hourly Weather History & Observations

Time (PDT) Temp. Windchill Dew Point Humidity Pressure Visibility Wind Dir Wind Speed Gust Speed Precip Events Conditions
12:56 AM 50.2 °F - 46.6 °F 87% 29.69 in 12.0 mi SW 4.6 mph - 0.01 in Rain Light Rain Showers
1:08 AM 50.0 °F - 46.4 °F 87% 29.70 in 12.0 mi SW 5.8 mph - N/A   Mostly Cloudy
1:12 AM 50.0 °F - 46.4 °F 87% 29.70 in 12.0 mi SW 5.8 mph - N/A Rain Light Rain Showers
1:42 AM 50.0 °F - 46.4 °F 87% 29.70 in 12.0 mi SSW 3.5 mph - N/A   Mostly Cloudy
1:56 AM 48.9 °F - 45.7 °F 89% 29.70 in 12.0 mi SW 4.6 mph - N/A   Mostly Cloudy
2:56 AM 47.5 °F - 40.3 °F 76% 29.72 in 12.0 mi WSW 9.2 mph - N/A   Scattered Clouds
3:56 AM 47.1 °F - 37.6 °F 69% 29.74 in 12.0 mi SW 5.8 mph - 0.01 in   Clear
4:56 AM 45.9 °F 41.7 °F 36.9 °F 71% 29.76 in 12.0 mi SW 8.1 mph - N/A   Clear
5:56 AM 43.3 °F - 37.9 °F 81% 29.77 in 12.0 mi North - - N/A   Clear
6:56 AM 47.8 °F - 39.2 °F 72% 29.79 in 12.0 mi West 5.8 mph - N/A   Partly Cloudy
7:56 AM 52.3 °F - 36.1 °F 54% 29.82 in 12.0 mi NE 3.5 mph - N/A   Partly Cloudy
8:56 AM 54.7 °F - 38.7 °F 55% 29.82 in 12.0 mi Variable 6.9 mph 16.1 mph N/A   Partly Cloudy
9:28 AM 57.2 °F - 37.4 °F 48% 29.82 in 12.0 mi West 11.5 mph 17.3 mph N/A   Clear
9:56 AM 55.4 °F - 37.4 °F 51% 29.83 in 12.0 mi WSW 10.4 mph 17.3 mph N/A   Mostly Cloudy
10:56 AM 59.9 °F - 36.1 °F 41% 29.84 in 12.0 mi WNW 15.0 mph 31.1 mph N/A   Scattered Clouds
11:56 AM 59.5 °F - 30.7 °F 34% 29.84 in 12.0 mi WNW 16.1 mph 28.8 mph N/A   Partly Cloudy
12:56 PM 60.4 °F - 32.0 °F 34% 29.85 in 12.0 mi NW 13.8 mph 27.6 mph N/A   Partly Cloudy
1:56 PM 61.3 °F - 30.2 °F 31% 29.84 in 12.0 mi NW 13.8 mph 21.9 mph N/A   Scattered Clouds
2:37 PM 59.0 °F - 30.2 °F 34% 29.85 in 12.0 mi NW 15.0 mph 25.3 mph N/A   Mostly Cloudy
2:56 PM 58.8 °F - 32.2 °F 37% 29.86 in 12.0 mi WNW 13.8 mph - N/A   Mostly Cloudy
3:56 PM 58.5 °F - 28.0 °F 31% 29.85 in 12.0 mi West 17.3 mph 26.5 mph N/A   Mostly Cloudy
4:56 PM 56.8 °F - 27.3 °F 32% 29.87 in 12.0 mi West 19.6 mph 27.6 mph N/A   Mostly Cloudy
5:56 PM 56.5 °F - 30.0 °F 36% 29.86 in 12.0 mi WNW 13.8 mph - N/A   Mostly Cloudy
7:56 PM 53.1 °F - 29.1 °F 40% 29.88 in 12.0 mi West 15.0 mph 19.6 mph N/A   Mostly Cloudy
8:56 PM 51.1 °F - 31.3 °F 47% 29.90 in 12.0 mi West 4.6 mph - N/A   Mostly Cloudy
9:56 PM 48.6 °F - 32.4 °F 54% 29.91 in 12.0 mi NW 4.6 mph - N/A   Scattered Clouds
10:56 PM 46.8 °F - 33.1 °F 59% 29.92 in 12.0 mi South 1.2 mph - N/A   Mostly Cloudy
11:56 PM 42.8 °F - 33.3 °F 69% 29.93 in 12.0 mi South 2.3 mph - N/A   Mostly Cloudy